Погода в Башмаково

Россия / Пензенская область     53°12′42″N   43°02′11″E
темп.,
°C
ветер,
м/с
пор.,
м/с
влажн.,
%
обл.,
%
осадки,
мм/ч
давл.,
гПа
погр.,
м
28 ноября, вс
вс2800:000ю91897100 1.4 1011635
03:00+1ю71598100 2.4 1010522
06:00+1ю613100100 0.6 1009411
09:00+1ю612100100 0.8 1010307
12:00+1ю511100100 0.4 1010269
15:00+1ю38100100 0.6 1011191
18:00+1ю35100100 0.0 101395
21:00+1ю35100100 0.1 101385
29 ноября, пн
пн2900:00+1ююв24100100 0.1 101483
03:00+2юв37100100 0.1 1013134
06:00+2юв411100100 0.0 1012226
09:00+3юв614100100 0.1 1010276
12:00+4ююв81999100 4.3 1006554
15:00+5ююв81799100 6.8 1004555
18:00+5ю71697100 1.3 1003451
21:00+6ююв81696100 1.3 1000421
30 ноября, вт
вт3000:00+7ююв102095100 4.1 993665
03:00+8ю112192100 9.3 989929
06:00+10ю132384100 0.4 9841118
09:00+9ююз14246979 1.4 9831585
12:00+3юз152685100 0.3 9861593
15:00+3юз142470100 0.8 9891369
18:00+2юз11197076 0.0 9921109
21:00+2юз101666100 0.0 9931186
1 декабря, ср
ср100:00+1юз8137147 0.0 994902
03:000юз71481100 0.0 993686
06:000юз51081100 0.0 992841
09:00−1юз5978100 0.1 993936
12:000зюз71074100 0.1 9931137
15:00−1зюз71175100 0.1 9941185
18:00−2з7127390 0.1 9951158
21:00−2з81270100 0.1 9971185
2 декабря, чт
чт200:00−2з71171100 0.0 9991098
03:00−3зюз6117378 0.1 1001925
06:00−3зюз6107774 0.0 1003809
09:00−3зюз51077100 0.0 1005653
12:00−2юз61059100 0.0 1005585
15:00−3юз5107194 0.0 1008544
18:00−2ююз7147698 0.0 1008667
21:00−1ююз8169392 0.3 1007650